Wind_Speed
6 4 3 2 2 1 2 3 3 6 7 5 6 7 8 10 12 12 11 10 10 10 10 9 8 7 7 7 8 7 7 7 7 7 7 8 9 8 9 8 8 9 10 10
5 5 4 5 3 2 1 4 4 5 7 5 7 9 8 10 11 11 11 11 10 10 9 9 9 8 8 7 8 8 7 7 7 8 9 10 10 10 11 11 10 11 12 12
7 6 7 6 5 4 3 4 6 6 8 6 8 10 11 11 10 10 10 11 11 10 10 9 8 8 8 8 8 8 8 7 8 8 9 10 11 11 12 12 12 12 12 13
10 9 9 7 7 6 6 7 7 7 7 7 7 11 12 12 11 11 10 11 12 10 10 9 7 8 8 9 9 9 8 8 8 9 9 11 12 13 13 13 14 14 14 14
12 10 10 9 9 9 9 8 7 8 7 8 7 12 13 12 12 12 11 11 10 10 10 10 10 9 9 10 10 10 10 9 9 9 10 11 13 13 13 14 15 14 14 14
12 11 11 11 10 10 9 8 10 9 10 11 9 12 14 13 14 13 12 12 11 11 10 11 12 11 11 11 11 11 11 11 11 10 11 12 13 14 14 15 15 16 15 14
13 13 13 12 11 11 9 10 12 12 13 12 10 11 14 13 12 14 14 13 13 12 11 11 13 13 12 13 13 13 13 13 12 12 13 13 14 14 15 15 15 16 16 15
13 13 13 13 14 13 11 11 12 14 15 14 12 12 13 14 13 14 15 14 14 15 14 13 13 14 14 14 15 15 15 14 14 14 14 15 15 16 16 16 16 16 17 17
15 14 14 15 14 14 13 13 13 14 14 15 15 14 13 15 14 15 16 15 16 17 16 15 15 15 15 15 16 16 16 15 15 16 16 16 16 17 17 17 17 18 18 19
17 17 15 14 14 14 15 14 13 14 15 14 15 17 18 16 16 16 17 18 20 18 17 17 17 17 17 17 17 18 17 17 16 17 17 17 17 17 18 18 19 19 20 20
19 19 17 16 17 17 17 16 15 15 16 15 16 18 18 17 18 18 19 20 21 20 19 20 19 18 19 19 19 18 19 19 18 18 18 18 18 19 20 20 21 21 21 21
19 19 19 18 18 18 18 17 16 17 18 17 17 18 19 19 20 19 19 20 22 20 20 21 21 20 20 20 20 20 20 20 20 20 20 20 21 21 22 22 22 22 21 21
20 20 20 19 19 19 19 19 18 18 18 18 18 20 21 21 21 22 21 21 21 21 21 22 21 21 22 22 22 22 20 21 21 21 22 22 22 23 23 23 23 23 24 23
23 22 22 20 18 16 18 19 19 19 20 19 19 21 23 25 25 24 22 21 21 22 21 23 22 23 24 23 23 22 22 22 23 23 23 23 24 24 24 24 25 25 25 25
24 24 23 23 20 19 19 20 20 21 22 21 21 21 24 27 27 26 24 24 24 22 22 23 24 24 25 25 24 24 24 24 24 24 24 25 25 26 26 26 27 27 28 27
25 25 25 25 23 22 22 22 22 22 22 23 24 25 26 28 28 27 26 25 26 25 25 25 25 26 26 27 26 26 26 26 26 27 27 27 27 28 28 28 28 28 28 28
27 27 26 25 23 24 25 23 22 23 23 23 25 26 27 29 29 28 28 28 27 27 26 27 28 27 27 27 27 27 27 27 28 28 28 29 29 29 30 30 29 29 29 29
27 27 27 25 24 26 25 23 24 26 26 25 25 28 29 29 30 31 30 27 27 28 28 27 28 28 28 28 28 29 29 29 29 29 30 30 30 30 30 30 30 30 30 30
26 27 27 25 25 26 24 25 24 26 28 28 28 29 30 30 30 31 32 31 29 28 28 29 28 28 29 29 29 29 29 29 30 30 30 30 30 30 30 30 30 31 31 32
28 29 28 28 27 27 27 25 26 28 31 31 30 30 31 31 31 33 33 31 31 30 29 29 29 29 29 29 29 30 30 30 31 30 30 31 31 31 30 30 31 32 32 33
27 29 29 29 30 30 29 27 28 29 32 33 33 33 32 32 32 32 32 32 31 30 30 30 30 30 30 30 30 30 30 30 31 31 30 31 31 31 31 31 32 33 33 34
28 28 30 30 31 32 31 30 32 33 32 33 34 34 35 34 33 33 34 32 32 31 31 31 32 31 31 31 31 31 31 31 31 31 31 31 31 32 33 33 33 34 35 35
28 28 29 30 31 32 33 34 34 34 34 33 33 34 35 34 34 34 34 33 32 32 32 32 33 32 31 31 32 31 31 32 32 31 31 32 32 33 34 34 34 34 34 33
29 31 32 32 33 34 35 35 36 35 36 36 35 34 34 35 35 34 34 34 33 34 33 33 33 33 33 32 32 32 32 33 33 33 33 34 34 34 34 34 34 33 33 33
31 32 34 34 34 35 36 36 36 37 37 37 36 36 36 36 36 35 35 35 34 34 34 34 33 33 33 33 33 33 33 34 34 34 34 34 34 34 34 33 33 33 33 34
32 33 34 34 35 36 37 36 37 37 37 36 36 36 36 36 36 36 36 36 35 34 34 35 34 34 34 34 33 34 34 34 35 35 35 35 34 34 34 34 34 33 34 34
Wind_Direction
179 173 195 197 200 145 34 341 329 338 329 331 328 327 341 352 359 354 352 346 350 354 356 355 351 351 352 352 348 343 342 338 341 343 342 339 340 337 335 332 327 327 324 318
194 195 214 224 218 216 261 295 309 322 312 321 319 311 317 341 345 346 346 345 347 350 349 350 347 345 344 344 345 343 336 338 337 337 337 335 336 336 334 328 321 322 322 318
217 212 220 232 231 241 259 282 295 298 298 299 305 307 322 331 333 339 337 335 336 342 343 347 345 346 344 342 340 338 333 330 327 329 330 331 331 332 331 327 321 319 319 316
228 228 231 246 249 242 258 265 274 284 296 298 304 295 298 308 318 320 322 330 331 337 337 341 343 338 339 341 340 334 329 327 326 324 325 326 326 327 328 327 324 318 314 313
228 235 239 247 252 250 249 260 269 281 286 288 292 287 292 309 314 318 313 318 323 326 320 326 331 329 329 329 331 330 328 323 321 322 323 324 324 324 325 326 325 322 321 314
229 232 240 249 255 259 256 277 291 296 287 281 284 291 299 310 311 314 309 312 317 319 315 314 318 319 320 321 323 323 325 322 318 318 319 322 324 323 323 322 323 324 325 323
239 240 241 248 253 259 259 275 286 295 288 285 289 280 288 300 303 305 302 303 306 309 306 305 310 311 313 313 313 315 317 316 314 314 314 316 319 320 321 322 323 325 323 321
244 251 250 252 254 253 249 255 268 281 291 297 283 277 287 292 295 296 296 294 297 300 296 298 302 303 305 305 307 310 311 311 310 310 310 311 314 316 317 318 319 321 320 318
242 249 251 250 251 251 251 253 262 275 280 284 288 289 289 287 289 293 292 293 294 295 293 295 295 298 299 302 303 306 307 308 306 305 306 307 309 311 314 316 316 317 317 318
238 245 243 251 253 252 254 256 264 265 269 272 282 285 288 286 288 289 296 296 297 295 292 295 296 296 297 298 299 301 304 304 303 302 302 303 305 308 310 312 313 314 315 315
239 244 247 245 249 249 253 252 253 259 263 266 275 284 292 292 290 294 299 297 295 295 294 296 296 294 295 297 297 298 299 300 300 300 300 300 301 304 305 306 307 309 310 312
242 243 246 246 249 252 255 252 253 260 265 262 268 275 283 283 287 290 291 292 292 291 292 292 293 294 294 295 295 295 296 296 297 298 299 299 299 300 301 302 303 304 306 308
240 240 243 247 248 248 253 252 250 252 259 266 267 272 275 277 281 286 289 291 291 288 289 289 290 292 293 294 294 294 294 295 296 297 297 298 299 299 300 300 301 302 303 304
243 242 241 244 248 250 255 256 251 249 253 260 264 269 274 279 280 282 284 287 288 288 289 291 292 292 291 293 294 293 294 294 296 297 297 298 298 298 299 300 300 301 301 302
245 245 244 245 244 247 254 258 258 255 252 254 259 267 274 279 281 283 284 284 288 287 289 292 293 292 291 291 292 292 292 292 293 295 295 296 296 297 298 299 300 300 299 299
246 248 248 248 245 247 253 255 254 254 256 257 260 264 269 275 280 281 281 283 285 285 286 288 291 291 290 291 291 290 290 290 291 292 293 293 293 294 295 296 297 297 297 298
251 252 252 252 250 250 253 255 258 257 255 258 262 265 267 271 276 277 278 277 280 282 283 285 289 290 289 290 290 288 287 288 289 290 291 292 292 292 293 294 294 296 296 296
255 256 255 253 251 252 252 254 258 259 259 261 261 266 268 273 278 279 278 280 282 283 283 285 288 289 289 289 289 290 287 286 287 288 289 290 291 291 292 293 294 295 296 296
253 257 255 253 252 256 259 258 258 258 258 259 259 263 268 272 274 275 276 279 282 282 284 285 286 288 289 289 289 290 289 288 288 289 289 289 290 291 293 294 294 295 295 295
254 255 254 253 252 254 256 255 254 259 262 260 260 264 268 272 275 277 280 280 281 283 285 286 286 287 288 289 289 289 288 287 286 287 287 289 290 292 293 294 294 295 296 295
261 260 258 256 254 257 259 257 258 260 262 264 266 267 268 271 274 277 279 281 282 284 285 285 287 287 288 288 289 289 287 286 286 286 288 290 292 293 293 294 295 296 296 295
261 262 260 259 256 255 256 260 259 259 260 262 266 267 268 270 273 275 278 281 284 286 285 286 286 286 287 286 288 289 288 287 287 288 289 291 292 293 294 295 296 296 297 296
257 259 258 257 256 255 255 258 261 262 263 264 265 266 269 270 272 274 277 281 282 284 284 285 285 285 285 285 286 288 287 287 287 288 289 290 292 293 294 295 295 296 297 296
256 255 256 258 259 258 257 257 259 261 263 264 266 267 268 270 272 274 277 280 281 282 284 284 286 285 284 284 284 285 286 286 286 287 289 290 291 292 293 293 294 295 296 297
254 257 259 260 260 261 261 260 260 261 263 265 265 266 267 268 272 275 277 278 280 282 283 283 284 285 285 285 285 285 285 285 286 287 288 289 290 291 291 292 293 294 295 296
255 259 262 264 264 264 264 264 264 265 264 265 265 266 268 269 272 274 276 278 279 281 281 282 282 283 284 285 284 285 285 286 286 287 287 288 288 288 290 292 292 293 293 294
Height
5925 5929 5930 5930 5931 5931 5932 5933 5933 5932 5932 5931 5928 5926 5924 5921 5920 5919 5917 5915 5913 5912 5911 5910 5909 5908 5907 5906 5906 5905 5904 5903 5903 5902 5901 5900 5899 5898 5897 5896 5895 5894 5892 5891
5926 5928 5930 5930 5931 5931 5932 5934 5933 5933 5932 5931 5928 5926 5923 5922 5921 5919 5918 5915 5913 5912 5911 5910 5909 5908 5907 5906 5905 5904 5904 5903 5902 5902 5901 5900 5899 5898 5897 5895 5894 5893 5891 5890
5925 5928 5929 5930 5931 5931 5932 5933 5933 5932 5931 5929 5928 5926 5925 5923 5921 5919 5918 5916 5914 5913 5911 5910 5909 5908 5907 5906 5905 5904 5903 5902 5902 5901 5900 5899 5898 5897 5896 5894 5893 5891 5890 5888
5924 5926 5927 5929 5930 5930 5932 5932 5930 5930 5929 5928 5928 5926 5923 5921 5920 5919 5917 5915 5914 5912 5911 5910 5910 5908 5907 5906 5905 5904 5903 5902 5901 5900 5899 5898 5897 5896 5894 5892 5891 5889 5888 5886
5922 5924 5926 5927 5928 5929 5929 5929 5928 5928 5928 5927 5926 5924 5921 5919 5918 5918 5917 5916 5914 5913 5912 5910 5909 5908 5907 5906 5905 5903 5902 5901 5900 5899 5898 5897 5896 5894 5892 5890 5889 5887 5886 5885
5920 5922 5924 5925 5926 5927 5927 5928 5926 5926 5925 5925 5924 5924 5920 5918 5917 5916 5916 5915 5914 5913 5911 5910 5908 5907 5906 5905 5904 5903 5901 5900 5899 5898 5897 5896 5894 5893 5891 5889 5887 5886 5884 5883
5918 5920 5921 5923 5924 5925 5926 5927 5926 5925 5924 5923 5922 5922 5920 5917 5916 5915 5914 5914 5913 5912 5911 5909 5907 5906 5905 5903 5902 5902 5901 5899 5898 5897 5896 5894 5893 5891 5889 5887 5886 5884 5882 5881
5916 5918 5920 5921 5922 5923 5924 5925 5926 5925 5923 5922 5920 5919 5919 5916 5915 5914 5912 5911 5911 5910 5909 5907 5906 5905 5903 5902 5901 5900 5899 5897 5896 5895 5893 5892 5890 5889 5887 5885 5883 5882 5880 5878
5913 5916 5917 5917 5918 5920 5921 5922 5923 5923 5922 5921 5918 5916 5917 5913 5913 5912 5910 5909 5908 5907 5906 5904 5903 5903 5901 5900 5899 5898 5897 5895 5894 5892 5891 5890 5888 5887 5885 5883 5881 5879 5877 5875
5909 5911 5913 5914 5915 5916 5918 5919 5920 5920 5918 5918 5917 5914 5913 5911 5910 5909 5907 5905 5905 5903 5902 5901 5900 5900 5899 5897 5896 5895 5894 5893 5891 5889 5888 5887 5885 5884 5882 5880 5878 5876 5874 5872
5905 5906 5909 5911 5912 5913 5914 5915 5915 5916 5915 5915 5914 5914 5910 5908 5907 5906 5904 5903 5902 5899 5899 5898 5897 5896 5895 5894 5893 5892 5891 5889 5888 5886 5885 5883 5882 5881 5879 5877 5875 5873 5871 5869
5899 5902 5903 5905 5907 5908 5909 5910 5911 5912 5911 5910 5910 5912 5908 5905 5903 5901 5900 5899 5898 5896 5895 5894 5893 5892 5891 5890 5889 5888 5886 5885 5884 5883 5881 5879 5878 5876 5875 5873 5871 5869 5867 5865
5894 5896 5898 5900 5903 5903 5903 5904 5905 5907 5907 5907 5907 5907 5903 5900 5899 5897 5896 5895 5893 5891 5890 5888 5887 5887 5887 5886 5885 5884 5882 5881 5880 5878 5877 5875 5873 5872 5870 5868 5866 5864 5862 5860
5888 5890 5892 5895 5896 5898 5898 5898 5900 5902 5902 5902 5902 5901 5897 5895 5894 5892 5891 5890 5889 5887 5886 5884 5883 5882 5881 5881 5880 5879 5878 5876 5875 5874 5872 5870 5868 5866 5865 5863 5861 5859 5856 5854
5882 5884 5886 5887 5889 5892 5893 5894 5895 5896 5896 5897 5897 5895 5892 5890 5888 5886 5886 5885 5884 5882 5881 5880 5879 5877 5876 5876 5875 5874 5873 5871 5869 5868 5866 5865 5863 5861 5859 5857 5855 5852 5850 5848
5876 5878 5879 5881 5883 5885 5886 5888 5888 5889 5890 5891 5890 5889 5888 5886 5883 5881 5880 5878 5877 5877 5876 5875 5874 5872 5871 5870 5869 5868 5867 5865 5863 5862 5860 5858 5856 5854 5853 5850 5848 5846 5843 5841
5869 5871 5872 5874 5877 5877 5879 5881 5881 5881 5882 5884 5883 5883 5880 5878 5876 5875 5874 5872 5871 5871 5870 5869 5868 5866 5865 5864 5863 5861 5860 5858 5857 5855 5853 5851 5849 5847 5845 5843 5841 5838 5836 5834
5863 5864 5866 5868 5870 5870 5874 5875 5875 5875 5875 5876 5876 5874 5872 5872 5870 5868 5866 5864 5864 5864 5863 5863 5861 5859 5859 5857 5855 5854 5852 5851 5849 5847 5846 5844 5842 5840 5838 5835 5833 5831 5829 5826
5857 5857 5859 5861 5862 5863 5866 5867 5868 5868 5867 5868 5867 5866 5864 5864 5863 5861 5858 5856 5857 5857 5855 5855 5854 5852 5851 5850 5848 5847 5845 5843 5842 5840 5838 5836 5834 5832 5830 5828 5825 5823 5821 5819
5850 5851 5853 5853 5855 5856 5858 5858 5858 5860 5859 5859 5857 5857 5856 5856 5856 5853 5851 5850 5850 5849 5848 5847 5846 5845 5844 5842 5841 5839 5837 5836 5833 5831 5829 5828 5826 5824 5822 5820 5817 5815 5813 5810
5843 5844 5844 5846 5846 5848 5850 5850 5851 5853 5851 5849 5849 5849 5848 5848 5848 5846 5843 5843 5842 5841 5841 5839 5838 5837 5836 5834 5833 5831 5830 5828 5826 5823 5821 5820 5818 5816 5814 5811 5809 5806 5804 5801
5836 5836 5837 5838 5838 5842 5841 5841 5842 5841 5840 5841 5841 5840 5840 5839 5838 5837 5836 5835 5834 5834 5833 5831 5830 5829 5828 5826 5825 5823 5822 5820 5818 5816 5814 5812 5810 5808 5805 5803 5800 5797 5795 5792
5828 5829 5828 5829 5830 5830 5831 5831 5831 5832 5832 5832 5832 5831 5831 5831 5830 5829 5828 5827 5826 5825 5824 5823 5821 5820 5819 5818 5816 5815 5813 5811 5809 5808 5806 5804 5802 5799 5797 5794 5792 5789 5786 5783
5819 5819 5819 5819 5820 5820 5821 5821 5822 5822 5822 5823 5822 5823 5823 5822 5821 5820 5820 5819 5817 5816 5815 5814 5813 5811 5810 5809 5808 5806 5804 5803 5801 5799 5797 5795 5793 5790 5788 5785 5783 5780 5777 5774
5809 5809 5809 5810 5810 5810 5811 5812 5812 5811 5812 5812 5813 5813 5813 5812 5811 5811 5810 5809 5808 5807 5806 5805 5803 5802 5801 5799 5798 5797 5795 5793 5792 5790 5788 5785 5783 5781 5778 5776 5773 5771 5768 5765
5801 5801 5801 5800 5800 5801 5801 5801 5801 5802 5802 5803 5803 5803 5803 5803 5802 5802 5801 5800 5799 5798 5797 5795 5794 5793 5791 5790 5788 5787 5785 5784 5782 5780 5778 5776 5773 5771 5769 5767 5764 5761 5759 5756